Regional Weather Roundup
Issued by NWS

Home | Current Version | Previous Version | Graphics & Text | Print | Product List | Glossary On
Versions: 1 2 3 4 5 6 7 8 9 10 11 12 13 14 15 16 17 18 19 20 21 22 23 24 25 26 27 28 29 30 31 32 33 34 35 36 37 38 39 40 41 42 43 44 45 46 47 48 49 50
000
ASUS45 KSLC 031710
RWRUT

UTAH REGIONAL WEATHER ROUNDUP
NATIONAL WEATHER SERVICE SALT LAKE CITY UT
1100 AM MDT SUN MAY 03 2015

UTZ001>011-023>025-031800-

NORTHERN UTAH

CITY           SKY/WX    TMP DP  RH WIND       PRES   REMARKS
BRIGHAM CITY   PTSUNNY   69  36  30 N8        29.93R
HILL AFB       PTSUNNY   70  41  35 E6        29.94S
LOGAN          SUNNY     65  41  41 NW7       29.93S
OGDEN          MOSUNNY   70  37  29 CALM      29.92S
PROVO AIRPORT  MOSUNNY   66  37  34 CALM      29.96S
SALT LAKE CITY PTSUNNY   73  37  27 S9        29.91R
VERNAL         SUNNY     67  35  30 VRB3      30.00S
WENDOVER       MOSUNNY   72  36  26 E10       29.92R
HEBER CITY     MOSUNNY   61  34  36 CALM      29.99S
WEST JORDAN    SUNNY     73  39  29 SE13      29.94R

$$

UTZ012>022-026-027-031800-

SOUTHERN/CENTRAL UTAH

CITY           SKY/WX    TMP DP  RH WIND       PRES   REMARKS
BLANDING       PTSUNNY   65  36  33 NE12G18   30.16S
BRYCE CANYON   PTSUNNY   59  29  31 SE14G21   30.13S
CEDAR CITY     CLOUDY    64  34  32 S10       30.06R
DELTA          MOSUNNY   74  25  16 SW13G20   29.95S
HANKSVILLE     PTSUNNY   75  28  17 SE7       29.98R
MILFORD        SUNNY     74  31  20 S24G32    29.98S
MOAB/CYNLANDS  SUNNY     75  32  20 S15G23    29.95S
PRICE          PTSUNNY   68  26  20 SE7       30.02R
ST GEORGE      MOSUNNY   70  43  37 NW7       29.95R
KANAB          PTSUNNY   66  34  30 SW8       30.11R

$$

REGIONAL REPORTS     COLORADO/ARIZONA

CITY           SKY/WX    TMP DP  RH WIND       PRES   REMARKS
CRAIG, CO      SUNNY     64  38  38 CALM      30.04S
GRAND JUNCTION MOSUNNY   69  36  29 CALM      29.98S
RIFLE          SUNNY     67  37  33 VRB5      30.02F
MONTROSE       MOSUNNY   71  30  21 CALM      30.05F
CORTEZ         MOSUNNY   64  38  38 NE6       30.12S
PAGE, AZ       PTSUNNY   72  33  24 NE7       30.01R
GRAND CANYON   SUNNY     64  34  32 SW9       30.13S
KINGMAN        MOSUNNY   78  29  16 SE16      29.95S
FLAGSTAFF      MOSUNNY   61  33  35 W8        30.15S

$$

REGIONAL REPORTS    NEVADA/IDAHO/WYOMING

CITY           SKY/WX    TMP DP  RH WIND       PRES   REMARKS
LAS VEGAS, NV  MOSUNNY   80  29  15 SW8       29.83R
ELY            MOSUNNY   65  23  20 SW16G23   30.02S
ELKO           SUNNY     69  35  28 SW7       29.95R
POCATELLO, ID  MOSUNNY   68  34  28 N3        29.95S
BURLEY         SUNNY     65  31  28 CALM      29.92S
EVANSTON, WY   MOSUNNY   62  32  32 VRB3      30.05F
ROCK SPRINGS   CLOUDY    56  40  55 NW9       30.07S
KEMMERER       MOSUNNY   61  32  33 S7        30.07S

$$


USA.gov is the U.S. government's official web portal to all federal, state and local government web resources and services.